{"data":{"norad_id":56916,"intl_designator":"2023-083AS","name":"STARLINK-5973","alt_names":[],"object_type":"PAYLOAD","status":"ACTIVE","operator":null,"country":"US","launch_date":"2023-06-12","launch_site_code":"AFETR","launch_vehicle":null,"mission":null,"orbit_class":"UNKNOWN","rcs_meters":null,"size_class":null,"mass_kg":null,"dimensions":null,"purposes":["comms"],"wikipedia_slug":null,"has_3d_model":false,"image_url":null,"decayed_at":null,"tle_current":{"epoch":"2026-09-20T16:53:15.125856Z","epoch_age_seconds":100435,"freshness":"FRESH","line1":"1 56916U 23083AS  26263.70364729 -.00000189  00000+0  26666-5 0  9999","line2":"2 56916  43.0034  49.2838 0001130 262.9241  97.1482 15.27576160181593","mean_motion":15.2757616,"eccentricity":0.000113,"inclination_deg":43.0034,"raan_deg":49.2838,"arg_perigee_deg":262.9241,"mean_anomaly_deg":97.1482,"bstar":2.6666e-6,"rev_number":18159,"period_min":94.266985680112,"perigee_km":482.285279077,"apogee_km":483.83590973334,"semimajor_km":6861.1975944052,"source":"CELESTRAK","updated_at":"2026-09-21T09:00:33.528211Z"}}}